Time,TemperatureF,DewpointF,PressureIn,WindDirection,WindDirectionDegrees,WindSpeedMPH,WindSpeedGustMPH,Humidity,HourlyPrecipIn,Conditions,Clouds,dailyrainin,SolarRadiationWatts/m^2,SoftwareType,DateUTC
2013-02-06 00:04:00,54.5,50.4,29.82,West,262,12.7,12.7,86,0.01,RA,,0.00,0.0,WeatherDisplay:10.37,2013-02-05 23:04:00,
2013-02-06 00:08:00,54.4,50.3,29.81,West,273,12.7,12.7,86,0.00,RA,,0.00,0.0,WeatherDisplay:10.37,2013-02-05 23:08:00,
2013-02-06 00:14:00,54.5,50.4,29.81,West,267,12.0,12.0,86,0.00,BKN,,0.00,0.0,WeatherDisplay:10.37,2013-02-05 23:14:00,
2013-02-06 00:19:00,54.5,50.4,29.81,West,273,20.7,20.7,86,0.00,BKN,,0.00,0.0,WeatherDisplay:10.37,2013-02-05 23:19:00,
2013-02-06 00:24:00,54.5,50.1,29.81,WNW,291,18.4,18.4,85,0.00,BKN,,0.00,0.0,WeatherDisplay:10.37,2013-02-05 23:24:00,
2013-02-06 00:29:00,54.3,50.2,29.81,WNW,294,13.8,13.8,86,0.00,BKN,,0.00,0.0,WeatherDisplay:10.37,2013-02-05 23:29:00,
2013-02-06 00:34:00,54.1,50.0,29.81,WNW,300,11.5,11.5,86,0.00,BKN,,0.00,0.0,WeatherDisplay:10.37,2013-02-05 23:34:00,
2013-02-06 00:39:00,54.2,50.1,29.81,WNW,290,17.3,17.3,86,0.00,BKN,,0.00,0.0,WeatherDisplay:10.37,2013-02-05 23:39:00,
2013-02-06 00:44:00,54.3,49.9,29.81,WSW,247,18.4,18.4,85,0.00,BKN,,0.00,0.0,WeatherDisplay:10.37,2013-02-05 23:44:00,
2013-02-06 00:49:00,54.4,50.0,29.81,WNW,297,16.1,16.1,85,0.00,BKN,,0.00,0.0,WeatherDisplay:10.37,2013-02-05 23:49:00,
2013-02-06 00:54:00,54.4,50.0,29.81,WNW,284,16.0,16.0,85,0.00,BKN,,0.00,0.0,WeatherDisplay:10.37,2013-02-05 23:54:00,
2013-02-06 00:59:00,54.4,50.0,29.81,WNW,292,13.8,13.8,85,0.00,BKN,,0.00,0.0,WeatherDisplay:10.37,2013-02-05 23:59:00,
2013-02-06 01:04:00,54.3,49.9,29.81,WNW,286,10.4,10.4,85,0.00,SCT,,0.00,0.0,WeatherDisplay:10.37,2013-02-06 00:04:00,
2013-02-06 01:09:00,54.3,49.9,29.80,West,270,16.1,16.1,85,0.00,SCT,,0.00,0.0,WeatherDisplay:10.37,2013-02-06 00:09:00,
2013-02-06 01:14:00,54.4,49.7,29.80,WSW,242,15.0,15.0,84,0.00,SCT,,0.00,0.0,WeatherDisplay:10.37,2013-02-06 00:14:00,
2013-02-06 01:19:00,54.4,49.7,29.80,West,263,12.7,12.7,84,0.00,SCT,,0.00,0.0,WeatherDisplay:10.37,2013-02-06 00:19:00,
2013-02-06 01:24:00,54.3,49.6,29.80,West,271,16.1,16.1,84,0.00,SCT,,0.00,0.0,WeatherDisplay:10.37,2013-02-06 00:24:00,
2013-02-06 01:29:00,54.4,49.7,29.80,WNW,295,15.0,15.0,84,0.00,SCT,,0.00,0.0,WeatherDisplay:10.37,2013-02-06 00:29:00,
2013-02-06 01:34:00,54.5,49.8,29.80,WNW,290,13.8,13.8,84,0.00,SCT,,0.00,0.0,WeatherDisplay:10.37,2013-02-06 00:34:00,
2013-02-06 01:39:00,54.4,49.7,29.80,WNW,288,12.7,12.7,84,0.00,SCT,,0.00,0.0,WeatherDisplay:10.37,2013-02-06 00:39:00,
2013-02-06 01:44:00,54.4,49.7,29.80,NW,315,9.2,9.2,84,0.00,SCT,,0.00,0.0,WeatherDisplay:10.37,2013-02-06 00:44:00,
2013-02-06 01:49:00,54.2,49.5,29.80,NW,309,5.8,5.8,84,0.00,SCT,,0.00,0.0,WeatherDisplay:10.37,2013-02-06 00:49:00,
2013-02-06 01:54:00,54.0,49.6,29.80,WNW,296,4.0,4.0,85,0.00,SCT,,0.00,0.0,WeatherDisplay:10.37,2013-02-06 00:54:00,
2013-02-06 01:59:00,53.9,49.5,29.79,WNW,286,6.0,6.0,85,0.00,SCT,,0.00,0.0,WeatherDisplay:10.37,2013-02-06 00:59:00,
2013-02-06 02:04:00,54.0,49.6,29.79,West,272,11.5,11.5,85,0.00,SCT,,0.00,0.0,WeatherDisplay:10.37,2013-02-06 01:04:00,
2013-02-06 02:09:00,54.0,49.6,29.79,NW,304,11.5,11.5,85,0.00,SCT,,0.00,0.0,WeatherDisplay:10.37,2013-02-06 01:09:00,
2013-02-06 02:14:00,54.1,49.7,29.79,West,269,9.2,9.2,85,0.00,SCT,,0.00,0.0,WeatherDisplay:10.37,2013-02-06 01:14:00,
2013-02-06 02:19:00,54.2,49.5,29.79,West,280,10.4,10.4,84,0.00,SCT,,0.00,0.0,WeatherDisplay:10.37,2013-02-06 01:19:00,
2013-02-06 02:24:00,54.3,49.6,29.78,WNW,295,10.4,10.4,84,0.00,SCT,,0.00,0.0,WeatherDisplay:10.37,2013-02-06 01:24:00,
2013-02-06 02:29:00,54.3,49.6,29.78,WSW,252,11.0,11.0,84,0.00,SCT,,0.00,0.0,WeatherDisplay:10.37,2013-02-06 01:29:00,
2013-02-06 02:34:00,54.3,49.6,29.78,WSW,238,8.1,8.1,84,0.00,SCT,,0.00,0.0,WeatherDisplay:10.37,2013-02-06 01:34:00,
2013-02-06 02:39:00,54.3,49.6,29.78,West,270,11.5,11.5,84,0.00,SCT,,0.00,0.0,WeatherDisplay:10.37,2013-02-06 01:39:00,
2013-02-06 02:44:00,54.4,49.7,29.78,West,270,11.5,11.5,84,0.00,SCT,,0.00,0.0,WeatherDisplay:10.37,2013-02-06 01:44:00,
2013-02-06 02:49:00,54.4,49.3,29.78,West,278,11.5,11.5,83,0.00,SCT,,0.00,0.0,WeatherDisplay:10.37,2013-02-06 01:49:00,
2013-02-06 02:54:00,54.3,49.2,29.77,WNW,286,10.4,10.4,83,0.00,SCT,,0.00,0.0,WeatherDisplay:10.37,2013-02-06 01:54:00,
2013-02-06 02:59:00,54.2,49.5,29.77,WNW,302,10.4,10.4,84,0.00,SCT,,0.00,0.0,WeatherDisplay:10.37,2013-02-06 01:59:00,
2013-02-06 03:04:00,54.0,49.3,29.77,WNW,298,8.1,8.1,84,0.00,SCT,,0.00,0.0,WeatherDisplay:10.37,2013-02-06 02:04:00,
2013-02-06 03:09:00,53.9,49.5,29.77,WNW,294,9.0,9.0,85,0.00,SCT,,0.00,0.0,WeatherDisplay:10.37,2013-02-06 02:09:00,
2013-02-06 03:14:00,54.0,49.6,29.77,WSW,248,16.1,16.1,85,0.00,SCT,,0.00,0.0,WeatherDisplay:10.37,2013-02-06 02:14:00,
2013-02-06 03:19:00,54.1,49.4,29.77,West,267,11.5,11.5,84,0.00,SCT,,0.00,0.0,WeatherDisplay:10.37,2013-02-06 02:19:00,
2013-02-06 03:24:00,54.1,49.1,29.77,West,270,20.7,20.7,83,0.00,SCT,,0.00,0.0,WeatherDisplay:10.37,2013-02-06 02:24:00,
2013-02-06 03:29:00,54.3,48.6,29.76,West,261,16.1,16.1,81,0.00,SCT,,0.00,0.0,WeatherDisplay:10.37,2013-02-06 02:29:00,
2013-02-06 03:34:00,54.3,48.6,29.76,West,269,18.4,18.4,81,0.00,SCT,,0.00,0.0,WeatherDisplay:10.37,2013-02-06 02:34:00,
2013-02-06 03:39:00,54.4,48.4,29.76,West,272,16.1,16.1,80,0.00,SCT,,0.00,0.0,WeatherDisplay:10.37,2013-02-06 02:39:00,
2013-02-06 03:44:00,54.3,48.3,29.76,WSW,256,11.5,11.5,80,0.00,SCT,,0.00,0.0,WeatherDisplay:10.37,2013-02-06 02:44:00,
2013-02-06 03:49:00,54.1,48.1,29.75,West,261,13.8,13.8,80,0.00,SCT,,0.00,0.0,WeatherDisplay:10.37,2013-02-06 02:49:00,
2013-02-06 03:54:00,54.0,48.0,29.75,West,270,11.5,11.5,80,0.00,SCT,,0.00,0.0,WeatherDisplay:10.37,2013-02-06 02:54:00,
2013-02-06 03:59:00,53.9,47.9,29.75,West,269,11.5,11.5,80,0.00,SCT,,0.00,0.0,WeatherDisplay:10.37,2013-02-06 02:59:00,
2013-02-06 04:04:00,53.9,47.9,29.75,West,274,11.5,11.5,80,0.00,SCT,,0.00,0.0,WeatherDisplay:10.37,2013-02-06 03:04:00,
2013-02-06 04:09:00,53.8,47.8,29.75,West,269,11.5,11.5,80,0.00,SCT,,0.00,0.0,WeatherDisplay:10.37,2013-02-06 03:09:00,
2013-02-06 04:14:00,53.8,47.8,29.75,WSW,240,11.5,11.5,80,0.00,SCT,,0.00,0.0,WeatherDisplay:10.37,2013-02-06 03:14:00,
2013-02-06 04:19:00,53.8,47.8,29.75,West,269,11.5,11.5,80,0.00,SCT,,0.00,0.0,WeatherDisplay:10.37,2013-02-06 03:19:00,
2013-02-06 04:24:00,53.8,47.4,29.75,West,264,11.5,11.5,79,0.00,SCT,,0.00,0.0,WeatherDisplay:10.37,2013-02-06 03:24:00,
2013-02-06 04:29:00,53.9,47.2,29.75,WSW,252,11.5,11.5,78,0.00,SCT,,0.00,0.0,WeatherDisplay:10.37,2013-02-06 03:29:00,
2013-02-06 04:34:00,53.9,47.2,29.75,WSW,257,11.5,11.5,78,0.00,SCT,,0.00,0.0,WeatherDisplay:10.37,2013-02-06 03:34:00,
2013-02-06 04:39:00,54.0,47.6,29.75,SW,215,13.8,13.8,79,0.00,SCT,,0.00,0.0,WeatherDisplay:10.37,2013-02-06 03:39:00,
2013-02-06 04:44:00,54.1,47.7,29.75,West,263,9.2,9.2,79,0.00,SCT,,0.00,0.0,WeatherDisplay:10.37,2013-02-06 03:44:00,
2013-02-06 04:49:00,54.1,47.7,29.75,WSW,250,13.0,13.0,79,0.00,SCT,,0.00,0.0,WeatherDisplay:10.37,2013-02-06 03:49:00,
2013-02-06 04:54:00,54.3,47.9,29.75,SSW,207,12.7,12.7,79,0.00,SCT,,0.00,0.0,WeatherDisplay:10.37,2013-02-06 03:54:00,
2013-02-06 04:59:00,54.3,47.2,29.75,West,264,11.5,11.5,77,0.00,SCT,,0.00,0.0,WeatherDisplay:10.37,2013-02-06 03:59:00,
2013-02-06 05:04:00,54.4,47.0,29.74,West,264,12.7,12.7,76,0.00,FEW,,0.00,0.0,WeatherDisplay:10.37,2013-02-06 04:04:00,
2013-02-06 05:09:00,54.4,46.6,29.74,WNW,283,9.2,9.2,75,0.00,FEW,,0.00,0.0,WeatherDisplay:10.37,2013-02-06 04:09:00,
2013-02-06 05:14:00,54.4,47.0,29.74,NW,323,10.4,10.4,76,0.00,FEW,,0.00,0.0,WeatherDisplay:10.37,2013-02-06 04:14:00,
2013-02-06 05:19:00,54.4,47.0,29.74,SW,234,11.5,11.5,76,0.00,FEW,,0.00,0.0,WeatherDisplay:10.37,2013-02-06 04:19:00,
2013-02-06 05:24:00,54.4,47.3,29.74,WSW,252,11.5,11.5,77,0.00,FEW,,0.00,0.0,WeatherDisplay:10.37,2013-02-06 04:24:00,
2013-02-06 05:29:00,54.3,47.2,29.74,WSW,247,9.0,13.0,77,0.00,FEW,,0.00,0.0,WeatherDisplay:10.37,2013-02-06 04:29:00,
2013-02-06 05:34:00,54.4,47.0,29.74,WSW,247,9.0,18.0,76,0.00,FEW,,0.00,0.0,WeatherDisplay:10.37,2013-02-06 04:34:00,
2013-02-06 05:39:00,54.4,46.6,29.74,West,265,12.0,12.0,75,0.00,FEW,,0.00,0.0,WeatherDisplay:10.37,2013-02-06 04:39:00,
2013-02-06 05:44:00,54.4,46.6,29.74,WSW,246,8.0,15.0,75,0.00,FEW,,0.00,0.0,WeatherDisplay:10.37,2013-02-06 04:44:00,
2013-02-06 05:49:00,54.4,47.0,29.74,WSW,246,9.0,16.0,76,0.00,FEW,,0.00,0.0,WeatherDisplay:10.37,2013-02-06 04:49:00,
2013-02-06 05:54:00,54.4,47.0,29.74,West,259,10.0,15.0,76,0.00,FEW,,0.00,0.0,WeatherDisplay:10.37,2013-02-06 04:54:00,
2013-02-06 05:59:00,54.3,46.9,29.74,West,264,11.5,11.5,76,0.00,FEW,,0.00,0.0,WeatherDisplay:10.37,2013-02-06 04:59:00,
2013-02-06 06:00:00,54.3,47.2,29.74,WSW,258,11.0,11.0,77,0.00,FEW,,0.00,0.0,WeatherDisplay:10.37,2013-02-06 05:00:00,
2013-02-06 06:05:00,54.2,47.1,29.74,West,269,12.7,12.7,77,0.00,FEW,,0.00,0.0,WeatherDisplay:10.37,2013-02-06 05:05:00,
2013-02-06 06:10:00,54.2,47.1,29.73,WSW,244,12.7,12.7,77,0.00,FEW,,0.00,0.0,WeatherDisplay:10.37,2013-02-06 05:10:00,
2013-02-06 06:15:00,54.1,46.7,29.73,WSW,244,11.5,11.5,76,0.00,FEW,,0.00,0.0,WeatherDisplay:10.37,2013-02-06 05:15:00,
2013-02-06 06:20:00,54.1,46.7,29.73,WSW,238,11.5,11.5,76,0.00,FEW,,0.00,0.0,WeatherDisplay:10.37,2013-02-06 05:20:00,
2013-02-06 06:25:00,54.1,46.7,29.73,WSW,243,11.5,11.5,76,0.00,FEW,,0.00,0.0,WeatherDisplay:10.37,2013-02-06 05:25:00,
2013-02-06 06:30:00,54.1,46.7,29.73,WSW,242,11.5,11.5,76,0.00,FEW,,0.00,0.0,WeatherDisplay:10.37,2013-02-06 05:30:00,
2013-02-06 06:35:00,54.1,46.7,29.72,WSW,240,11.5,11.5,76,0.00,FEW,,0.00,0.0,WeatherDisplay:10.37,2013-02-06 05:35:00,
2013-02-06 06:40:00,54.2,47.1,29.72,WSW,252,10.4,10.4,77,0.00,FEW,,0.00,0.0,WeatherDisplay:10.37,2013-02-06 05:40:00,
2013-02-06 06:45:00,54.2,47.5,29.72,SW,236,10.4,10.4,78,0.00,FEW,,0.00,0.0,WeatherDisplay:10.37,2013-02-06 05:45:00,
2013-02-06 06:50:00,54.3,47.6,29.72,SW,216,11.5,11.5,78,0.00,FEW,,0.00,0.0,WeatherDisplay:10.37,2013-02-06 05:50:00,
2013-02-06 06:55:00,54.3,47.6,29.72,WSW,251,9.2,9.2,78,0.00,FEW,,0.00,0.0,WeatherDisplay:10.37,2013-02-06 05:55:00,
2013-02-06 07:00:00,54.3,47.9,29.72,West,266,11.5,11.5,79,0.00,FEW,,0.00,0.0,WeatherDisplay:10.37,2013-02-06 06:00:00,
2013-02-06 07:05:00,54.3,47.9,29.72,West,272,9.2,9.2,79,0.00,FEW,,0.00,0.0,WeatherDisplay:10.37,2013-02-06 06:05:00,
2013-02-06 07:10:00,54.3,47.9,29.71,West,275,11.5,11.5,79,0.00,FEW,,0.00,0.0,WeatherDisplay:10.37,2013-02-06 06:10:00,
2013-02-06 07:15:00,54.3,48.3,29.71,West,268,10.4,10.4,80,0.00,FEW,,0.00,0.0,WeatherDisplay:10.37,2013-02-06 06:15:00,
2013-02-06 07:20:00,54.2,48.5,29.71,West,278,19.6,19.6,81,0.00,FEW,,0.00,5.0,WeatherDisplay:10.37,2013-02-06 06:20:00,
2013-02-06 07:25:00,54.4,48.7,29.71,SSW,199,15.0,15.0,81,0.00,FEW,,0.00,11.0,WeatherDisplay:10.37,2013-02-06 06:25:00,
2013-02-06 07:30:00,54.3,48.6,29.71,West,265,14.0,14.0,81,0.00,FEW,,0.00,16.0,WeatherDisplay:10.37,2013-02-06 06:30:00,
2013-02-06 07:35:00,54.4,48.7,29.71,SSE,165,15.0,15.0,81,0.00,FEW,,0.00,21.0,WeatherDisplay:10.37,2013-02-06 06:35:00,
2013-02-06 07:40:00,54.5,48.5,29.70,WSW,254,14.0,14.0,80,0.00,FEW,,0.00,28.0,WeatherDisplay:10.37,2013-02-06 06:40:00,
2013-02-06 07:45:00,54.6,48.9,29.70,WSW,238,11.5,11.5,81,0.00,FEW,,0.00,47.0,WeatherDisplay:10.37,2013-02-06 06:45:00,
2013-02-06 07:50:00,54.6,48.6,29.70,West,277,12.7,12.7,80,0.00,FEW,,0.00,60.0,WeatherDisplay:10.37,2013-02-06 06:50:00,
2013-02-06 07:55:00,54.6,48.6,29.70,West,265,13.8,13.8,80,0.00,FEW,,0.00,77.0,WeatherDisplay:10.37,2013-02-06 06:55:00,
2013-02-06 08:00:00,54.6,48.2,29.70,SSW,209,16.1,16.1,79,0.00,FEW,,0.00,88.0,WeatherDisplay:10.37,2013-02-06 07:00:00,
2013-02-06 08:05:00,54.7,48.3,29.70,WSW,238,18.4,18.4,79,0.00,FEW,,0.00,95.0,WeatherDisplay:10.37,2013-02-06 07:05:00,
2013-02-06 08:10:00,54.8,48.7,29.69,WSW,250,12.0,12.0,80,0.00,FEW,,0.00,97.0,WeatherDisplay:10.37,2013-02-06 07:10:00,
2013-02-06 08:15:00,54.7,48.6,29.69,WSW,254,13.8,13.8,80,0.00,FEW,,0.00,98.0,WeatherDisplay:10.37,2013-02-06 07:15:00,
2013-02-06 08:20:00,54.7,48.6,29.70,WSW,239,19.6,19.6,80,0.00,FEW,,0.00,76.0,WeatherDisplay:10.37,2013-02-06 07:20:00,
2013-02-06 08:25:00,54.7,48.6,29.70,WSW,248,14.0,14.0,80,0.00,FEW,,0.00,88.0,WeatherDisplay:10.37,2013-02-06 07:25:00,
2013-02-06 08:30:00,54.8,48.7,29.70,WSW,242,18.4,18.4,80,0.00,FEW,,0.00,91.0,WeatherDisplay:10.37,2013-02-06 07:30:00,
2013-02-06 08:35:00,54.8,48.7,29.70,West,259,16.1,16.1,80,0.00,FEW,,0.00,100.0,WeatherDisplay:10.37,2013-02-06 07:35:00,
2013-02-06 08:40:00,54.8,48.7,29.70,WSW,251,11.5,11.5,80,0.00,FEW,,0.00,67.0,WeatherDisplay:10.37,2013-02-06 07:40:00,
2013-02-06 08:45:00,54.8,48.7,29.69,WSW,241,10.4,10.4,80,0.00,FEW,,0.00,70.0,WeatherDisplay:10.37,2013-02-06 07:45:00,
2013-02-06 08:50:00,54.8,48.7,29.69,West,259,10.4,10.4,80,0.00,FEW,,0.00,95.0,WeatherDisplay:10.37,2013-02-06 07:50:00,
2013-02-06 08:55:00,54.8,48.7,29.69,SW,235,10.4,10.4,80,0.00,FEW,,0.00,121.0,WeatherDisplay:10.37,2013-02-06 07:55:00,
2013-02-06 09:00:00,54.9,48.8,29.69,WSW,237,10.4,10.4,80,0.00,FEW,,0.00,132.0,WeatherDisplay:10.37,2013-02-06 08:00:00,
2013-02-06 09:05:00,55.0,48.6,29.69,SSW,198,5.8,5.8,79,0.00,SCT,,0.00,146.0,WeatherDisplay:10.37,2013-02-06 08:05:00,
2013-02-06 09:10:00,55.0,48.3,29.69,West,279,10.0,10.0,78,0.00,SCT,,0.00,232.0,WeatherDisplay:10.37,2013-02-06 08:10:00,
2013-02-06 09:15:00,55.2,48.1,29.68,SSW,211,7.0,7.0,77,0.00,SCT,,0.00,216.0,WeatherDisplay:10.37,2013-02-06 08:15:00,
2013-02-06 09:20:00,55.4,47.6,29.68,WSW,242,8.1,8.1,75,0.00,SCT,,0.00,311.0,WeatherDisplay:10.37,2013-02-06 08:20:00,
2013-02-06 09:25:00,55.6,47.8,29.68,WSW,258,10.4,10.4,75,0.00,SCT,,0.00,158.0,WeatherDisplay:10.37,2013-02-06 08:25:00,
2013-02-06 09:30:00,55.7,47.5,29.68,WSW,240,11.0,11.0,74,0.00,SCT,,0.00,165.0,WeatherDisplay:10.37,2013-02-06 08:30:00,
2013-02-06 09:35:00,55.6,47.1,29.68,WSW,248,10.4,10.4,73,0.00,SCT,,0.00,200.0,WeatherDisplay:10.37,2013-02-06 08:35:00,
2013-02-06 09:40:00,55.6,47.1,29.68,WNW,301,10.4,10.4,73,0.00,SCT,,0.00,253.0,WeatherDisplay:10.37,2013-02-06 08:40:00,
2013-02-06 09:45:00,55.7,47.2,29.68,SW,227,13.0,13.0,73,0.00,SCT,,0.00,236.0,WeatherDisplay:10.37,2013-02-06 08:45:00,
2013-02-06 09:50:00,55.6,48.5,29.68,WNW,286,11.5,11.5,77,0.00,SCT,,0.00,227.0,WeatherDisplay:10.37,2013-02-06 08:50:00,
2013-02-06 09:55:00,55.4,48.7,29.67,WSW,241,15.0,15.0,78,0.00,SCT,,0.00,123.0,WeatherDisplay:10.37,2013-02-06 08:55:00,
2013-02-06 10:00:00,55.3,48.6,29.67,West,259,12.7,12.7,78,0.00,SCT,,0.00,146.0,WeatherDisplay:10.37,2013-02-06 09:00:00,
2013-02-06 10:06:00,55.3,48.6,29.67,West,270,12.7,12.7,78,0.00,SCT,,0.00,162.0,WeatherDisplay:10.37,2013-02-06 09:06:00,
2013-02-06 10:11:00,55.3,48.9,29.67,WSW,254,9.2,9.2,79,0.00,SCT,,0.00,251.0,WeatherDisplay:10.37,2013-02-06 09:11:00,
2013-02-06 10:16:00,55.4,48.7,29.66,WSW,248,13.0,13.0,78,0.00,SCT,,0.00,276.0,WeatherDisplay:10.37,2013-02-06 09:16:00,
2013-02-06 10:21:00,55.3,48.6,29.66,WNW,289,10.4,10.4,78,0.00,SCT,,0.00,230.0,WeatherDisplay:10.37,2013-02-06 09:21:00,
2013-02-06 10:26:00,55.3,48.6,29.66,SW,223,11.5,11.5,78,0.00,SCT,,0.00,234.0,WeatherDisplay:10.37,2013-02-06 09:26:00,
2013-02-06 10:31:00,55.4,48.7,29.66,SSW,211,12.0,12.0,78,0.00,BKN,,0.00,299.0,WeatherDisplay:10.37,2013-02-06 09:31:00,
2013-02-06 10:36:00,55.4,48.3,29.66,SW,223,11.5,11.5,77,0.00,BKN,,0.00,257.0,WeatherDisplay:10.37,2013-02-06 09:36:00,
2013-02-06 10:41:00,55.6,48.5,29.66,West,267,11.5,11.5,77,0.00,BKN,,0.00,260.0,WeatherDisplay:10.37,2013-02-06 09:41:00,
2013-02-06 10:46:00,55.6,48.5,29.65,SW,219,16.1,16.1,77,0.00,BKN,,0.00,330.0,WeatherDisplay:10.37,2013-02-06 09:46:00,
2013-02-06 10:51:00,55.6,48.5,29.65,SW,227,12.7,12.7,77,0.00,BKN,,0.00,471.0,WeatherDisplay:10.37,2013-02-06 09:51:00,
2013-02-06 10:56:00,56.0,48.5,29.65,WSW,254,12.7,12.7,76,0.00,BKN,,0.00,455.0,WeatherDisplay:10.37,2013-02-06 09:56:00,
2013-02-06 11:01:00,56.0,48.5,29.65,West,278,17.3,17.3,76,0.00,BKN,,0.00,418.0,WeatherDisplay:10.37,2013-02-06 10:01:00,
2013-02-06 11:06:00,56.0,48.2,29.65,WSW,247,13.8,13.8,75,0.00,BKN,,0.00,598.0,WeatherDisplay:10.37,2013-02-06 10:06:00,
2013-02-06 11:11:00,56.2,48.0,29.65,WSW,242,17.3,17.3,74,0.00,BKN,,0.00,281.0,WeatherDisplay:10.37,2013-02-06 10:11:00,
2013-02-06 11:16:00,56.4,48.6,29.65,SW,217,13.8,13.8,75,0.00,BKN,,0.00,538.0,WeatherDisplay:10.37,2013-02-06 10:16:00,
2013-02-06 11:21:00,56.3,47.8,29.64,WSW,240,15.0,15.0,73,0.00,BKN,,0.00,302.0,WeatherDisplay:10.37,2013-02-06 10:21:00,
2013-02-06 11:26:00,55.9,47.7,29.64,SW,234,15.0,15.0,74,0.00,BKN,,0.00,267.0,WeatherDisplay:10.37,2013-02-06 10:26:00,
2013-02-06 11:31:00,56.0,47.5,29.64,WSW,244,18.0,18.0,73,0.00,BKN,,0.00,287.0,WeatherDisplay:10.37,2013-02-06 10:31:00,
2013-02-06 11:36:00,55.9,48.1,29.64,SW,225,19.6,19.6,75,0.00,BKN,,0.00,290.0,WeatherDisplay:10.37,2013-02-06 10:36:00,
2013-02-06 11:41:00,55.7,47.9,29.63,NNW,336,18.4,18.4,75,0.00,BKN,,0.00,299.0,WeatherDisplay:10.37,2013-02-06 10:41:00,
2013-02-06 11:46:00,55.7,47.5,29.63,SW,215,19.6,19.6,74,0.00,BKN,,0.00,264.0,WeatherDisplay:10.37,2013-02-06 10:46:00,
2013-02-06 11:51:00,55.6,47.1,29.63,WSW,243,20.7,20.7,73,0.00,BKN,,0.00,248.0,WeatherDisplay:10.37,2013-02-06 10:51:00,
2013-02-06 11:56:00,55.6,47.4,29.62,SW,229,21.9,21.9,74,0.00,BKN,,0.00,251.0,WeatherDisplay:10.37,2013-02-06 10:56:00,
2013-02-06 12:01:00,55.7,47.2,29.62,WSW,240,19.6,19.6,73,0.00,SCT,,0.00,246.0,WeatherDisplay:10.37,2013-02-06 11:01:00,
2013-02-06 12:06:00,55.7,47.9,29.61,SW,225,20.7,20.7,75,0.00,SCT,,0.00,244.0,WeatherDisplay:10.37,2013-02-06 11:06:00,
2013-02-06 12:11:00,55.5,48.4,29.61,SW,219,25.3,25.3,77,0.00,SCT,,0.00,251.0,WeatherDisplay:10.37,2013-02-06 11:11:00,
2013-02-06 12:16:00,55.4,48.7,29.61,WSW,247,24.2,24.2,78,0.00,SCT,,0.00,262.0,WeatherDisplay:10.37,2013-02-06 11:16:00,
2013-02-06 12:21:00,55.6,48.8,29.60,SW,232,27.0,27.0,78,0.00,SCT,,0.00,373.0,WeatherDisplay:10.37,2013-02-06 11:21:00,
2013-02-06 12:26:00,55.7,48.6,29.60,WSW,242,24.0,24.0,77,0.00,SCT,,0.00,436.0,WeatherDisplay:10.37,2013-02-06 11:26:00,
2013-02-06 12:31:00,55.6,47.8,29.59,SSW,207,26.5,26.5,75,0.00,SCT,,0.00,415.0,WeatherDisplay:10.37,2013-02-06 11:31:00,
2013-02-06 12:36:00,55.7,47.9,29.59,SW,232,26.5,26.5,75,0.00,SCT,,0.00,320.0,WeatherDisplay:10.37,2013-02-06 11:36:00,
2013-02-06 12:41:00,55.7,47.9,29.59,NNW,340,24.2,24.2,75,0.00,SCT,,0.00,308.0,WeatherDisplay:10.37,2013-02-06 11:41:00,
2013-02-06 12:46:00,55.6,47.8,29.59,WSW,238,24.2,24.2,75,0.00,SCT,,0.00,306.0,WeatherDisplay:10.37,2013-02-06 11:46:00,
2013-02-06 12:51:00,55.7,48.2,29.58,WSW,248,23.0,23.0,76,0.00,SCT,,0.00,392.0,WeatherDisplay:10.37,2013-02-06 11:51:00,
2013-02-06 12:56:00,55.7,48.2,29.58,South,190,19.6,19.6,76,0.00,SCT,,0.00,353.0,WeatherDisplay:10.37,2013-02-06 11:56:00,
2013-02-06 13:01:00,55.7,48.6,29.57,SW,223,19.6,19.6,77,0.00,SCT,,0.00,234.0,WeatherDisplay:10.37,2013-02-06 12:01:00,
2013-02-06 13:06:00,55.5,48.4,29.57,WSW,244,19.6,19.6,77,0.00,SCT,,0.00,204.0,WeatherDisplay:10.37,2013-02-06 12:06:00,
2013-02-06 13:11:00,55.5,48.4,29.57,SW,223,21.9,21.9,77,0.00,SCT,,0.00,234.0,WeatherDisplay:10.37,2013-02-06 12:11:00,
2013-02-06 13:16:00,55.3,48.2,29.57,SW,235,17.3,17.3,77,0.00,SCT,,0.00,121.0,WeatherDisplay:10.37,2013-02-06 12:16:00,
2013-02-06 13:21:00,55.2,48.1,29.57,WNW,290,20.7,20.7,77,0.00,SCT,,0.00,81.0,WeatherDisplay:10.37,2013-02-06 12:21:00,
2013-02-06 13:26:00,55.0,47.6,29.57,WSW,242,19.6,19.6,76,0.00,SCT,,0.00,53.0,WeatherDisplay:10.37,2013-02-06 12:26:00,
2013-02-06 13:31:00,54.9,47.8,29.57,SSW,211,24.2,24.2,77,0.00,SCT,,0.00,53.0,WeatherDisplay:10.37,2013-02-06 12:31:00,
2013-02-06 13:36:00,54.9,47.5,29.56,SW,223,19.6,19.6,76,0.00,SCT,,0.00,44.0,WeatherDisplay:10.37,2013-02-06 12:36:00,
2013-02-06 13:41:00,54.9,48.2,29.56,West,263,21.9,21.9,78,0.00,SCT,,0.00,42.0,WeatherDisplay:10.37,2013-02-06 12:41:00,
2013-02-06 13:46:00,54.7,47.6,29.55,NNE,20,15.0,15.0,77,0.00,SCT,,0.00,47.0,WeatherDisplay:10.37,2013-02-06 12:46:00,
2013-02-06 13:51:00,54.7,48.0,29.55,West,261,19.6,19.6,78,0.00,SCT,,0.00,33.0,WeatherDisplay:10.37,2013-02-06 12:51:00,
2013-02-06 13:56:00,54.7,48.0,29.56,SSE,167,19.6,19.6,78,0.00,SCT,,0.00,32.0,WeatherDisplay:10.37,2013-02-06 12:56:00,
2013-02-06 14:01:00,54.8,47.7,29.55,West,279,18.4,18.4,77,0.00,SCT,,0.00,49.0,WeatherDisplay:10.37,2013-02-06 13:01:00,
2013-02-06 14:06:00,54.8,47.0,29.54,SW,219,19.0,19.0,75,0.00,SCT,,0.00,104.0,WeatherDisplay:10.37,2013-02-06 13:06:00,
2013-02-06 14:11:00,55.0,45.0,29.53,WSW,240,21.9,21.9,69,0.00,SCT,,0.00,151.0,WeatherDisplay:10.37,2013-02-06 13:11:00,
2013-02-06 14:16:00,55.5,43.1,29.53,WSW,240,21.0,21.0,63,0.00,SCT,,0.00,185.0,WeatherDisplay:10.37,2013-02-06 13:16:00,
2013-02-06 14:21:00,55.7,42.5,29.53,SW,221,25.3,25.3,61,0.00,SCT,,0.00,253.0,WeatherDisplay:10.37,2013-02-06 13:21:00,
2013-02-06 14:26:00,55.5,42.7,29.53,SSW,200,23.0,23.0,62,0.00,SCT,,0.00,260.0,WeatherDisplay:10.37,2013-02-06 13:26:00,
2013-02-06 14:31:00,54.9,42.5,29.53,SW,231,20.7,20.7,63,0.00,SCT,,0.00,336.0,WeatherDisplay:10.37,2013-02-06 13:31:00,
2013-02-06 14:36:00,55.2,43.6,29.54,WSW,254,22.0,22.0,65,0.00,SCT,,0.00,577.0,WeatherDisplay:10.37,2013-02-06 13:36:00,
2013-02-06 14:41:00,55.6,43.6,29.54,North,360,19.0,19.0,64,0.00,SCT,,0.00,571.0,WeatherDisplay:10.37,2013-02-06 13:41:00,
2013-02-06 14:46:00,56.2,43.3,29.54,WSW,242,15.0,15.0,62,0.00,SCT,,0.00,457.0,WeatherDisplay:10.37,2013-02-06 13:46:00,
2013-02-06 14:50:00,56.2,42.5,29.53,SW,219,12.0,19.0,60,0.00,OVC,,0.00,450.0,WeatherDisplay:10.37,2013-02-06 13:50:00,
2013-02-06 14:57:00,55.3,42.9,29.53,SW,233,19.6,19.6,63,0.00,SCT,,0.00,431.0,WeatherDisplay:10.37,2013-02-06 13:57:00,
2013-02-06 15:02:00,54.7,43.6,29.53,West,263,19.6,19.6,66,0.00,SCT,,0.00,79.0,WeatherDisplay:10.37,2013-02-06 14:02:00,
2013-02-06 15:07:00,54.7,43.2,29.53,SW,232,20.7,20.7,65,0.00,SCT,,0.00,97.0,WeatherDisplay:10.37,2013-02-06 14:07:00,
2013-02-06 15:12:00,54.7,42.8,29.53,SW,221,25.3,25.3,64,0.00,SCT,,0.00,139.0,WeatherDisplay:10.37,2013-02-06 14:12:00,
2013-02-06 15:17:00,54.8,42.9,29.52,WSW,250,21.9,21.9,64,0.00,SCT,,0.00,128.0,WeatherDisplay:10.37,2013-02-06 14:17:00,
2013-02-06 15:23:00,54.7,43.2,29.52,WSW,246,17.3,17.3,65,0.00,SCT,,0.00,107.0,WeatherDisplay:10.37,2013-02-06 14:23:00,
2013-02-06 15:28:00,54.6,43.5,29.52,SW,233,19.6,19.6,66,0.00,SCT,,0.00,42.0,WeatherDisplay:10.37,2013-02-06 14:28:00,
2013-02-06 15:33:00,54.2,43.5,29.53,SW,234,24.2,24.2,67,0.00,SCT,,0.01,11.0,WeatherDisplay:10.37,2013-02-06 14:33:00,
2013-02-06 15:38:00,52.1,43.7,29.53,WSW,240,19.0,19.0,73,0.04,RA,,0.05,12.0,WeatherDisplay:10.37,2013-02-06 14:38:00,
2013-02-06 15:43:00,51.4,44.4,29.53,WSW,257,26.5,26.5,77,0.06,RA,,0.06,11.0,WeatherDisplay:10.37,2013-02-06 14:43:00,
2013-02-06 15:48:00,51.7,45.1,29.52,West,269,21.9,21.9,78,0.06,RA,,0.06,23.0,WeatherDisplay:10.37,2013-02-06 14:48:00,
2013-02-06 15:53:00,51.9,44.2,29.53,WNW,302,20.7,20.7,75,0.06,SCT,,0.06,42.0,WeatherDisplay:10.37,2013-02-06 14:53:00,
2013-02-06 15:58:00,52.1,44.1,29.53,West,267,17.0,17.0,74,0.06,SCT,,0.06,33.0,WeatherDisplay:10.37,2013-02-06 14:58:00,
2013-02-06 16:03:00,52.1,42.6,29.52,WNW,302,23.0,23.0,70,0.06,-RA,,0.06,33.0,WeatherDisplay:10.37,2013-02-06 15:03:00,
2013-02-06 16:08:00,52.1,42.2,29.52,NW,313,15.0,15.0,69,0.06,-RA,,0.06,37.0,WeatherDisplay:10.37,2013-02-06 15:08:00,
2013-02-06 16:13:00,52.1,41.5,29.52,NW,309,13.8,13.8,67,0.06,-RA,,0.06,46.0,WeatherDisplay:10.37,2013-02-06 15:13:00,
2013-02-06 16:18:00,52.1,41.9,29.52,WNW,298,14.0,14.0,68,0.06,-RA,,0.06,33.0,WeatherDisplay:10.37,2013-02-06 15:18:00,
2013-02-06 16:23:00,52.1,41.1,29.52,WNW,296,19.6,19.6,66,0.06,-RA,,0.06,35.0,WeatherDisplay:10.37,2013-02-06 15:23:00,
2013-02-06 16:28:00,52.2,41.2,29.53,WSW,256,19.6,19.6,66,0.06,-RA,,0.06,32.0,WeatherDisplay:10.37,2013-02-06 15:28:00,
2013-02-06 16:33:00,52.1,41.9,29.53,NW,314,12.7,12.7,68,0.06,-RA,,0.06,23.0,WeatherDisplay:10.37,2013-02-06 15:33:00,
2013-02-06 16:38:00,52.0,41.8,29.53,NW,304,13.8,13.8,68,0.02,-RA,,0.06,16.0,WeatherDisplay:10.37,2013-02-06 15:38:00,
2013-02-06 16:43:00,52.0,41.8,29.54,NW,309,10.4,11.9,68,0.00,-RA,,0.06,9.0,WeatherDisplay:10.37,2013-02-06 15:43:00,
2013-02-06 16:48:00,52.1,41.5,29.54,WNW,284,13.8,13.8,67,0.00,-RA,,0.06,7.0,WeatherDisplay:10.37,2013-02-06 15:48:00,
2013-02-06 16:53:00,52.1,41.9,29.54,West,269,10.4,10.4,68,0.00,SCT,,0.06,5.0,WeatherDisplay:10.37,2013-02-06 15:53:00,
2013-02-06 16:58:00,52.0,41.8,29.53,NW,306,11.5,11.5,68,0.00,SCT,,0.06,5.0,WeatherDisplay:10.37,2013-02-06 15:58:00,
2013-02-06 17:03:00,52.0,41.4,29.54,WNW,296,17.0,17.0,67,0.00,SCT,,0.06,5.0,WeatherDisplay:10.37,2013-02-06 16:03:00,
2013-02-06 17:08:00,52.1,41.5,29.54,West,281,13.8,13.8,67,0.00,SCT,,0.06,0.0,WeatherDisplay:10.37,2013-02-06 16:08:00,
2013-02-06 17:13:00,52.1,41.9,29.54,WNW,291,11.5,11.5,68,0.00,SCT,,0.06,0.0,WeatherDisplay:10.37,2013-02-06 16:13:00,
2013-02-06 17:18:00,52.0,41.8,29.54,West,259,11.0,11.0,68,0.00,SCT,,0.06,0.0,WeatherDisplay:10.37,2013-02-06 16:18:00,
2013-02-06 17:23:00,52.0,41.8,29.54,WNW,284,13.8,13.8,68,0.00,SCT,,0.06,0.0,WeatherDisplay:10.37,2013-02-06 16:23:00,
2013-02-06 17:28:00,52.1,41.5,29.54,West,280,17.3,17.3,67,0.00,SCT,,0.06,0.0,WeatherDisplay:10.37,2013-02-06 16:28:00,
2013-02-06 17:33:00,52.1,41.1,29.53,West,261,15.0,15.0,66,0.00,SCT,,0.06,0.0,WeatherDisplay:10.37,2013-02-06 16:33:00,
2013-02-06 17:38:00,52.1,40.7,29.53,NW,317,19.6,19.6,65,0.00,SCT,,0.06,0.0,WeatherDisplay:10.37,2013-02-06 16:38:00,
2013-02-06 17:43:00,52.0,41.0,29.53,WNW,288,12.7,12.7,66,0.00,SCT,,0.06,0.0,WeatherDisplay:10.37,2013-02-06 16:43:00,
2013-02-06 17:48:00,52.0,40.6,29.53,WNW,287,15.0,15.0,65,0.00,SCT,,0.06,0.0,WeatherDisplay:10.37,2013-02-06 16:48:00,
2013-02-06 17:53:00,51.9,40.1,29.53,West,270,13.8,13.8,64,0.00,SCT,,0.06,0.0,WeatherDisplay:10.37,2013-02-06 16:53:00,
2013-02-06 17:58:00,51.8,39.6,29.53,West,267,13.8,13.8,63,0.00,SCT,,0.06,0.0,WeatherDisplay:10.37,2013-02-06 16:58:00,
2013-02-06 18:03:00,51.7,39.5,29.53,WNW,285,19.6,19.6,63,0.00,SCT,,0.06,0.0,WeatherDisplay:10.37,2013-02-06 17:03:00,
2013-02-06 18:08:00,51.6,39.4,29.53,WNW,287,13.8,13.8,63,0.00,SCT,,0.06,0.0,WeatherDisplay:10.37,2013-02-06 17:08:00,
2013-02-06 18:13:00,51.5,39.3,29.53,West,280,17.3,17.3,63,0.00,SCT,,0.06,0.0,WeatherDisplay:10.37,2013-02-06 17:13:00,
2013-02-06 18:18:00,51.5,39.3,29.53,WNW,288,12.0,12.0,63,0.00,SCT,,0.06,0.0,WeatherDisplay:10.37,2013-02-06 17:18:00,
2013-02-06 18:23:00,51.3,39.1,29.53,West,281,12.7,12.7,63,0.00,SCT,,0.06,0.0,WeatherDisplay:10.37,2013-02-06 17:23:00,
2013-02-06 18:28:00,51.3,39.1,29.53,WNW,290,11.5,11.5,63,0.00,SCT,,0.06,0.0,WeatherDisplay:10.37,2013-02-06 17:28:00,
2013-02-06 18:33:00,51.3,39.5,29.53,WNW,302,11.5,11.5,64,0.00,SCT,,0.06,0.0,WeatherDisplay:10.37,2013-02-06 17:33:00,
2013-02-06 18:38:00,51.3,39.9,29.53,WNW,300,13.8,13.8,65,0.00,SCT,,0.06,0.0,WeatherDisplay:10.37,2013-02-06 17:38:00,
2013-02-06 18:43:00,51.2,39.4,29.53,SW,225,16.1,16.1,64,0.00,SCT,,0.06,0.0,WeatherDisplay:10.37,2013-02-06 17:43:00,
2013-02-06 18:48:00,51.2,39.8,29.53,West,273,9.0,9.0,65,0.00,SCT,,0.06,0.0,WeatherDisplay:10.37,2013-02-06 17:48:00,
2013-02-06 18:53:00,51.2,39.4,29.53,West,271,16.0,16.0,64,0.00,SCT,,0.06,0.0,WeatherDisplay:10.37,2013-02-06 17:53:00,
2013-02-06 18:58:00,51.2,38.6,29.53,West,259,11.5,11.5,62,0.00,SCT,,0.06,0.0,WeatherDisplay:10.37,2013-02-06 17:58:00,
2013-02-06 19:03:00,51.2,39.0,29.53,West,281,11.5,11.5,63,0.00,FEW,,0.06,0.0,WeatherDisplay:10.37,2013-02-06 18:03:00,
2013-02-06 19:08:00,51.2,39.0,29.53,WNW,298,9.2,9.2,63,0.00,FEW,,0.06,0.0,WeatherDisplay:10.37,2013-02-06 18:08:00,
2013-02-06 19:13:00,51.2,39.4,29.53,SW,229,11.5,11.5,64,0.00,FEW,,0.06,0.0,WeatherDisplay:10.37,2013-02-06 18:13:00,
2013-02-06 19:18:00,51.3,39.5,29.53,WNW,298,13.8,13.8,64,0.00,FEW,,0.06,0.0,WeatherDisplay:10.37,2013-02-06 18:18:00,
2013-02-06 19:23:00,51.3,39.5,29.54,NW,323,9.2,9.2,64,0.00,FEW,,0.06,0.0,WeatherDisplay:10.37,2013-02-06 18:23:00,
2013-02-06 19:28:00,51.3,39.5,29.53,NNW,340,16.1,16.1,64,0.00,FEW,,0.06,0.0,WeatherDisplay:10.37,2013-02-06 18:28:00,
2013-02-06 19:33:00,50.9,39.5,29.53,NW,304,7.0,7.0,65,0.00,FEW,,0.06,0.0,WeatherDisplay:10.37,2013-02-06 18:33:00,
2013-02-06 19:38:00,50.5,39.6,29.53,WNW,300,4.6,4.6,66,0.00,FEW,,0.06,0.0,WeatherDisplay:10.37,2013-02-06 18:38:00,
2013-02-06 19:43:00,50.3,39.4,29.53,NW,311,5.8,5.8,66,0.00,FEW,,0.06,0.0,WeatherDisplay:10.37,2013-02-06 18:43:00,
2013-02-06 19:48:00,50.2,39.7,29.53,WNW,285,4.6,4.6,67,0.00,FEW,,0.06,0.0,WeatherDisplay:10.37,2013-02-06 18:48:00,
2013-02-06 19:53:00,50.2,39.7,29.53,WNW,295,6.9,6.9,67,0.00,FEW,,0.06,0.0,WeatherDisplay:10.37,2013-02-06 18:53:00,
2013-02-06 19:58:00,50.2,39.7,29.53,West,277,6.0,6.0,67,0.00,FEW,,0.06,0.0,WeatherDisplay:10.37,2013-02-06 18:58:00,
2013-02-06 20:03:00,50.1,39.6,29.54,NNW,334,7.0,7.0,67,0.00,FEW,,0.06,0.0,WeatherDisplay:10.37,2013-02-06 19:03:00,
2013-02-06 20:08:00,50.0,40.2,29.54,NNW,330,1.1,1.1,69,0.00,FEW,,0.06,0.0,WeatherDisplay:10.37,2013-02-06 19:08:00,
2013-02-06 20:13:00,49.7,40.3,29.54,NNE,15,1.1,1.1,70,0.00,FEW,,0.06,0.0,WeatherDisplay:10.37,2013-02-06 19:13:00,
2013-02-06 20:18:00,49.2,40.2,29.55,North,5,2.3,2.3,71,0.00,FEW,,0.06,0.0,WeatherDisplay:10.37,2013-02-06 19:18:00,
2013-02-06 20:23:00,48.8,39.8,29.55,NNE,13,3.5,3.5,71,0.00,FEW,,0.06,0.0,WeatherDisplay:10.37,2013-02-06 19:23:00,
2013-02-06 20:28:00,48.6,39.6,29.55,NNE,13,1.1,1.1,71,0.00,FEW,,0.06,0.0,WeatherDisplay:10.37,2013-02-06 19:28:00,
2013-02-06 20:33:00,48.5,39.5,29.55,NNE,13,1.1,1.1,71,0.00,FEW,,0.06,0.0,WeatherDisplay:10.37,2013-02-06 19:33:00,
2013-02-06 20:38:00,48.5,39.5,29.55,North,10,3.5,3.5,71,0.00,FEW,,0.06,0.0,WeatherDisplay:10.37,2013-02-06 19:38:00,
2013-02-06 20:43:00,48.5,39.5,29.54,North,355,2.3,2.3,71,0.00,FEW,,0.06,0.0,WeatherDisplay:10.37,2013-02-06 19:43:00,
2013-02-06 20:48:00,48.5,39.5,29.55,NW,314,4.0,4.0,71,0.00,FEW,,0.06,0.0,WeatherDisplay:10.37,2013-02-06 19:48:00,
2013-02-06 20:53:00,48.6,39.3,29.55,NNW,338,5.8,5.8,70,0.00,,,0.06,0.0,WeatherDisplay:10.37,2013-02-06 19:53:00,
2013-02-06 20:58:00,48.8,39.1,29.55,NNE,32,5.8,5.8,69,0.00,,,0.06,0.0,WeatherDisplay:10.37,2013-02-06 19:58:00,
2013-02-06 21:03:00,48.9,38.8,29.55,NNW,337,3.5,3.5,68,0.00,,,0.06,0.0,WeatherDisplay:10.37,2013-02-06 20:03:00,
2013-02-06 21:08:00,48.8,38.7,29.55,NW,324,3.5,3.5,68,0.00,,,0.06,0.0,WeatherDisplay:10.37,2013-02-06 20:08:00,
2013-02-06 21:14:00,48.6,38.5,29.55,NNW,329,4.0,4.0,68,0.00,,,0.06,0.0,WeatherDisplay:10.37,2013-02-06 20:14:00,
2013-02-06 21:19:00,48.4,38.3,29.55,NNW,341,3.5,3.5,68,0.00,,,0.06,0.0,WeatherDisplay:10.37,2013-02-06 20:19:00,
2013-02-06 21:24:00,48.3,38.2,29.55,NW,326,3.5,3.5,68,0.00,,,0.06,0.0,WeatherDisplay:10.37,2013-02-06 20:24:00,
2013-02-06 21:29:00,47.9,38.2,29.55,NNW,345,3.5,3.5,69,0.00,,,0.06,0.0,WeatherDisplay:10.37,2013-02-06 20:29:00,
2013-02-06 21:34:00,47.6,38.3,29.55,NNW,336,3.5,3.5,70,0.00,,,0.06,0.0,WeatherDisplay:10.37,2013-02-06 20:34:00,
2013-02-06 21:39:00,47.5,38.2,29.55,NNW,348,4.6,4.6,70,0.00,,,0.06,0.0,WeatherDisplay:10.37,2013-02-06 20:39:00,
2013-02-06 21:44:00,47.6,38.3,29.55,NNW,341,5.0,5.0,70,0.00,,,0.06,0.0,WeatherDisplay:10.37,2013-02-06 20:44:00,
2013-02-06 21:49:00,47.6,37.9,29.55,NNW,341,4.6,4.6,69,0.00,,,0.06,0.0,WeatherDisplay:10.37,2013-02-06 20:49:00,
2013-02-06 21:54:00,47.8,38.1,29.55,NNW,348,4.6,4.6,69,0.00,,,0.06,0.0,WeatherDisplay:10.37,2013-02-06 20:54:00,
2013-02-06 21:59:00,47.9,37.8,29.55,NNW,329,4.6,4.6,68,0.00,,,0.06,0.0,WeatherDisplay:10.37,2013-02-06 20:59:00,
2013-02-06 22:04:00,47.9,37.8,29.55,NW,319,3.5,3.5,68,0.00,,,0.06,0.0,WeatherDisplay:10.37,2013-02-06 21:04:00,
2013-02-06 22:09:00,47.8,37.7,29.55,NW,315,3.5,3.5,68,0.00,,,0.06,0.0,WeatherDisplay:10.37,2013-02-06 21:09:00,
2013-02-06 22:14:00,47.7,37.7,29.55,NW,305,3.5,3.5,68,0.00,,,0.06,0.0,WeatherDisplay:10.37,2013-02-06 21:14:00,
2013-02-06 22:19:00,47.7,37.7,29.55,NW,323,3.5,3.5,68,0.00,,,0.06,0.0,WeatherDisplay:10.37,2013-02-06 21:19:00,
2013-02-06 22:24:00,47.7,37.7,29.55,NNW,331,3.5,3.5,68,0.00,,,0.06,0.0,WeatherDisplay:10.37,2013-02-06 21:24:00,
2013-02-06 22:29:00,47.7,37.7,29.55,NNW,345,3.5,3.5,68,0.00,,,0.06,0.0,WeatherDisplay:10.37,2013-02-06 21:29:00,
2013-02-06 22:34:00,47.8,37.7,29.55,NNW,327,6.0,6.0,68,0.00,,,0.06,0.0,WeatherDisplay:10.37,2013-02-06 21:34:00,
2013-02-06 22:39:00,48.0,37.6,29.55,NNW,327,6.9,6.9,67,0.00,,,0.06,0.0,WeatherDisplay:10.37,2013-02-06 21:39:00,
2013-02-06 22:44:00,48.0,37.6,29.55,North,351,5.8,5.8,67,0.00,,,0.06,0.0,WeatherDisplay:10.37,2013-02-06 21:44:00,
2013-02-06 22:49:00,47.8,37.7,29.56,ESE,118,1.1,1.1,68,0.00,,,0.06,0.0,WeatherDisplay:10.37,2013-02-06 21:49:00,
2013-02-06 22:54:00,47.1,37.4,29.56,ENE,67,3.5,3.5,69,0.00,,,0.06,0.0,WeatherDisplay:10.37,2013-02-06 21:54:00,
2013-02-06 22:59:00,46.5,37.2,29.56,East,94,2.3,2.3,70,0.00,,,0.06,0.0,WeatherDisplay:10.37,2013-02-06 21:59:00,
2013-02-06 23:04:00,46.2,37.3,29.56,East,94,1.1,1.1,71,0.00,,,0.06,0.0,WeatherDisplay:10.37,2013-02-06 22:04:00,
2013-02-06 23:09:00,46.0,37.5,29.56,East,94,1.1,0.0,72,0.00,,,0.06,0.0,WeatherDisplay:10.37,2013-02-06 22:09:00,
2013-02-06 23:14:00,45.9,37.4,29.56,East,94,0.0,0.0,72,0.00,,,0.06,0.0,WeatherDisplay:10.37,2013-02-06 22:14:00,
2013-02-06 23:19:00,45.9,37.4,29.56,North,351,2.3,2.3,72,0.00,,,0.06,0.0,WeatherDisplay:10.37,2013-02-06 22:19:00,
2013-02-06 23:24:00,45.9,37.4,29.56,NNW,346,1.1,1.1,72,0.00,,,0.06,0.0,WeatherDisplay:10.37,2013-02-06 22:24:00,
2013-02-06 23:29:00,46.0,37.5,29.56,NNW,328,3.5,3.5,72,0.00,,,0.06,0.0,WeatherDisplay:10.37,2013-02-06 22:29:00,
2013-02-06 23:34:00,46.1,37.2,29.56,NNE,16,3.5,3.5,71,0.00,,,0.06,0.0,WeatherDisplay:10.37,2013-02-06 22:34:00,
2013-02-06 23:39:00,46.3,37.0,29.57,NNW,327,3.5,3.5,70,0.00,,,0.06,0.0,WeatherDisplay:10.37,2013-02-06 22:39:00,
2013-02-06 23:44:00,46.6,36.2,29.57,North,360,5.8,5.8,67,0.00,,,0.06,0.0,WeatherDisplay:10.37,2013-02-06 22:44:00,
2013-02-06 23:49:00,46.9,35.7,29.57,NNW,339,4.6,4.6,65,0.00,,,0.06,0.0,WeatherDisplay:10.37,2013-02-06 22:49:00,
2013-02-06 23:54:00,47.0,35.8,29.57,NNW,338,4.6,4.6,65,0.00,,,0.06,0.0,WeatherDisplay:10.37,2013-02-06 22:54:00,
2013-02-06 23:59:00,47.2,35.6,29.56,NW,319,5.8,5.8,64,0.00,,,0.06,0.0,WeatherDisplay:10.37,2013-02-06 22:59:00,